Location: Antichan
(42.9728°N, 0.6667°E)
Time: 06:28:39
(UTC+00:00)

Daily predictions for brighter satellites

Satellite Brightness Start Highest point End
(mag) Time Altitude Azimuth Time Altitude Azimuth Time Altitude Azimuth
SJ-6B 3.2 19:21:37 10° SSE 19:25:28 47° ENE 19:29:16 10° N
Cosmos 1190 Rocket 4.0 19:20:46 10° S 19:26:00 67° ESE 19:31:17 10° NNE
Cosmos 1862 3.4 19:22:00 10° S 19:26:02 89° SE 19:30:08 10° N
deb Kosmos-1763 4.2 19:23:51 10° S 19:27:22 52° ESE 19:30:56 10° NNE
Cosmos 1140 Rocket 3.5 19:22:38 10° S 19:27:50 67° ESE 19:33:03 10° NNE
Cosmos 1023 Rocket 4.5 19:24:01 10° S 19:29:16 71° ESE 19:34:32 10° NNE
OBJECT-B 2.0 19:30:26 10° SE 19:33:13 26° ENE 19:36:01 10° NNE
Cosmos 1441 Rocket 3.2 19:29:30 10° S 19:33:16 84° WNW 19:37:01 10° N
IRIDIUM 106 4.3 19:28:34 10° S 19:33:43 66° E 19:38:54 10° N
Cosmos 1633 Rocket 3.6 19:31:58 10° SSE 19:36:01 37° E 19:40:05 10° NNE
Cosmos 1184 Rocket 4.0 19:34:11 10° SSE 19:36:54 24° E 19:39:38 10° NE
SL-08 RB Rocket 3.8 19:33:43 10° SSE 19:38:21 87° ENE 19:43:03 10° NNW
Cosmos 921 Rocket 4.1 19:38:08 10° N 19:41:43 27° ENE 19:45:04 11° ESE
Cosmos 2239 Rocket 4.5 19:35:47 10° S 19:41:49 66° E 19:47:56 10° NNE
Cosmos 2123 Rocket 4.4 19:37:26 10° N 19:43:24 45° ENE 19:49:21 10° SSE
Meteor 1-27 Rocket 3.9 19:42:46 10° N 19:48:44 76° E 19:54:39 10° SSE
ARGOS 3.9 19:47:06 10° S 19:52:21 54° W 19:57:38 10° NNW
NOSS 3-2 (A) 3.3 19:48:44 10° SSW 19:54:19 77° ESE 20:00:42 10° NE
Cosmos 1707 Rocket 3.5 19:50:22 10° N 19:54:43 82° E 19:59:02 10° S
CZ-2C R/B 2.5 19:50:34 10° NNE 19:55:47 83° ESE 20:01:04 10° SSW
Cosmos 192 4.4 19:52:19 10° NNW 19:57:11 61° ENE 20:01:41 12° SSE
USA 267 4.0 19:54:27 10° ENE 19:59:58 28° SE 20:05:26 10° S
SL-4 R/B 3.9 19:58:08 10° WNW 20:01:39 27° NNW 20:04:56 10° NE
MONITOR-E 3.3 20:00:31 13° SSE 20:02:32 88° W 20:04:53 10° NNW
SL-16 R/B 3.3 19:57:46 10° N 20:02:40 29° NE 20:06:27 15° ESE
BREEZE-M DEB (TANK) 3.5 20:00:42 10° WNW 20:03:02 35° N 20:07:42 10° ENE
SL-27 R/B 4.0 20:04:28 17° E 20:04:28 17° E 20:06:30 10° ENE
BREEZE-M DEB (TANK) 3.8 19:59:57 10° WNW 20:04:37 27° SW 20:07:04 10° S
NOSS 3-2 (C) 3.4 19:59:35 10° SSW 20:05:02 56° ESE 20:11:13 10° NE
Cosmos 1470 Rocket 3.9 20:01:40 10° SSE 20:05:48 43° E 20:09:57 10° NNE
Sich 1 3.9 20:02:16 10° SSW 20:06:36 54° W 20:10:58 10° N
Cosmos 2082 Rocket 2.8 20:04:04 10° SW 20:09:41 61° WNW 20:15:20 10° NNE
MetOp-A 4.3 20:04:35 10° S 20:09:56 76° WSW 20:15:19 10° NNW
BREEZE-M DEB (TANK) 4.2 20:07:53 10° WNW 20:10:30 22° N 20:12:12 10° NE
USA 186 3.9 20:09:53 10° SW 20:11:25 16° W 20:12:57 10° NW
Meteor 2-20 Rocket 4.4 20:10:00 10° N 20:16:10 70° E 20:21:58 11° SSE
H-2A R/B 4.3 20:14:32 10° SW 20:18:31 23° W 20:22:27 10° NW
Meteor 1-4 Rocket 2.8 20:15:14 10° NNW 20:18:40 64° W 20:21:51 12° S
Cosmos 2322 Rocket 3.2 20:14:58 10° N 20:20:04 32° NE 20:23:15 19° ESE
Cosmos 2278 4.2 20:15:53 10° NNW 20:21:31 60° WSW 20:27:03 10° S
Cosmos 1850 Rocket 4.2 20:17:15 10° S 20:22:19 48° ESE 20:27:23 10° NNE
Cosmos 1862 Rocket 3.5 20:18:04 10° N 20:22:32 79° E 20:25:58 16° SSE
Meteor 1-25 Rocket 4.2 20:18:46 10° S 20:24:16 66° E 20:29:52 10° NNE
SPOT 1/Viking Rocket 4.5 20:23:32 21° ESE 20:26:03 32° ENE 20:30:39 10° N
USA 32 4.0 20:21:52 10° S 20:27:02 67° E 20:32:14 10° N
USA 276 3.4 20:25:45 10° NW 20:28:43 34° NNE 20:30:10 22° ENE
Cosmos 2360 Rocket 3.7 20:24:39 10° N 20:29:01 22° NE 20:31:48 16° E
X-37B 0.6 20:26:04 10° WNW 20:29:14 77° NNE 20:30:22 36° E
Terra 3.8 20:27:56 13° ENE 20:29:16 14° ENE 20:31:42 10° NNE
ATLAS 3B R/B 3.2 20:24:32 10° S 20:30:13 32° ESE 20:35:55 10° NE
Meteor 1-18 Rocket 4.5 20:25:24 10° N 20:30:49 50° ENE 20:33:52 25° SE
IGS 5A 4.2 20:29:39 27° ESE 20:31:08 37° ENE 20:34:58 10° N
Cosmos 1238 Rocket 2.0 20:30:32 37° SSE 20:31:27 61° E 20:34:25 10° NNE
Cosmos 1934 Rocket 4.3 20:29:10 10° SSW 20:35:30 70° W 20:41:53 10° N
Cosmos 468 Rocket 4.0 20:31:38 10° NNW 20:36:55 67° ENE 20:39:43 28° SE
CZ-2C R/B 4.1 20:32:49 10° N 20:37:20 64° WNW 20:41:45 10° SSW
Resurs 01 Rocket 1.6 20:34:56 20° S 20:38:00 82° WSW 20:42:29 10° NNW
Cosmos 1980 Rocket 3.0 20:32:47 10° NW 20:38:13 48° WSW 20:43:06 12° S
Cosmos 44 4.0 20:33:35 10° NNW 20:38:19 43° NE 20:40:36 27° ESE
Lacrosse 5 1.8 20:34:18 10° NW 20:39:24 81° NE 20:41:50 31° SE
Cosmos 1602 3.7 20:37:46 26° S 20:39:51 66° E 20:43:46 10° NNE
GP-B 3.0 20:41:22 10° N 20:45:50 87° E 20:48:37 23° S
SPOT 3 Rocket 4.2 20:41:01 11° S 20:45:58 53° W 20:51:03 10° NNW
Cosmos 1933 Rocket 3.5 20:42:59 17° S 20:46:18 83° E 20:50:46 10° N
Cosmos 405 Rocket 2.9 20:50:04 18° SSW 20:52:42 69° WNW 20:56:28 10° N
Spot 2 Rocket 3.5 20:51:17 34° SE 20:53:27 66° ENE 20:58:30 10° N
Cosmos 1869 Rocket 3.9 20:57:44 42° ESE 20:58:01 42° E 21:02:14 10° NNE
CENTAUR R/B 2.7 20:52:15 10° SW 20:58:06 72° NW 21:05:05 10° NNE
Cosmos 1515 3.6 20:55:26 10° N 20:59:14 64° E 20:59:36 60° ESE
Okean 1-7 3.0 20:56:51 10° N 21:01:07 63° E 21:01:51 53° SE
Cosmos 1741 Rocket 4.1 20:55:58 10° SSW 21:01:13 81° WNW 21:06:32 10° NNE
OBJECT-B 3.6 21:03:29 10° SW 21:05:35 16° W 21:07:42 10° NW
Cosmos 1437 Rocket 2.5 21:03:10 10° N 21:06:59 86° E 21:07:19 73° SSE
Cosmos 1763 Rocket 3.6 21:05:53 10° NNW 21:11:12 72° WSW 21:13:14 38° S
Cosmos 1703 Rocket 3.4 21:07:06 10° N 21:11:27 88° W 21:12:20 56° S
H-2A R/B 4.0 21:08:01 10° N 21:12:06 58° WNW 21:14:44 21° SSW
Cosmos 2333 Rocket 3.8 21:09:10 10° N 21:13:30 21° NE 21:15:19 18° ENE
Cosmos 1570 Rocket 4.1 21:08:21 10° NNW 21:13:40 66° ENE 21:14:58 49° SE
ATLAS 5 CENTAUR R/B 3.7 21:11:19 10° N 21:13:56 24° NE 21:14:58 23° ENE
Landsat 7 3.9 21:15:20 43° S 21:16:52 73° W 21:21:38 10° NNW
SPOT 5 2.9 21:17:39 48° ENE 21:17:46 49° ENE 21:22:02 10° N
Meteor 1-5 Rocket 4.3 21:18:35 45° SSE 21:20:13 61° E 21:26:03 10° NNE
Cosmos 2208 Rocket 3.9 21:19:57 10° NNW 21:25:11 68° ENE 21:25:57 59° ESE
Meteor 1-11 Rocket 3.9 21:31:46 50° ESE 21:32:00 50° E 21:37:34 10° NNE
Lacrosse 4 Rocket 3.0 21:37:37 24° NE 21:37:37 24° NE 21:39:27 10° NE
Cosmos 2100 Rocket 3.9 21:36:57 41° S 21:39:18 86° W 21:45:29 10° N
SL-4 R/B 3.8 21:39:02 10° NW 21:42:07 22° N 21:42:59 21° NNE
Cosmos 2173 Rocket 3.9 21:41:11 44° SSW 21:43:17 85° W 21:49:25 10° N
USA 267 3.2 21:36:50 10° NE 21:43:24 83° NW 21:49:56 10° SW
Meteor 2-4 Rocket 3.7 21:38:00 10° NNW 21:43:34 72° W 21:44:39 56° SSW
Cosmos 2219 Rocket 3.3 21:38:36 10° N 21:43:34 30° NE 21:44:23 29° ENE
Cosmos 540 Rocket 3.4 21:38:44 10° NNW 21:43:55 73° WSW 21:44:28 66° SSW
SL-16 R/B 2.9 21:41:34 10° NW 21:46:58 46° WSW 21:48:20 38° SW
Cosmos 1725 Rocket 3.9 21:55:17 64° SE 21:55:52 68° E 22:02:09 10° NNE
Cosmos 1459 Rocket 4.2 21:53:47 40° SSW 21:56:10 70° W 22:02:32 10° N
ERS-1 Rocket 3.2 21:56:14 57° SW 21:56:39 59° W 22:01:37 10° NNW
Cosmos 2322 4.0 21:51:38 10° NNW 21:57:11 52° ENE 21:57:25 52° ENE
Cosmos 1833 4.1 21:58:11 70° SSW 21:58:52 88° WNW 22:04:34 10° NNE
SL-08 R/B 4.3 21:59:40 71° SE 22:00:05 74° E 22:06:11 10° N
Cosmos 1536 4.3 22:03:05 32° NNE 22:03:05 32° NNE 22:05:17 10° N
Cosmos 2346 Rocket 4.2 21:56:53 10° N 22:02:58 86° E 22:03:31 75° SSE
Meteor 1-13 Rocket 4.1 21:57:35 10° NNW 22:03:07 80° W 22:03:23 77° SW
Cosmos 2016 Rocket 3.9 22:02:20 63° S 22:03:30 88° W 22:09:55 10° N
Cosmos 2322 Rocket 3.0 21:58:54 10° NW 22:04:11 41° WSW 22:05:03 38° SW
Cosmos 2221 Rocket 4.1 22:01:53 10° N 22:05:37 60° NNW 22:05:37 60° NNW
Terra 2.0 22:06:49 68° WNW 22:06:49 68° WNW 22:11:11 10° NNW
Okean 3 4.3 22:05:10 10° NNW 22:08:38 48° NW 22:08:38 48° NW
Cosmos 841 Rocket 4.3 22:04:47 10° NW 22:09:41 41° WSW 22:10:01 41° WSW
Cosmos 1666 4.4 22:12:27 30° N 22:12:27 30° N 22:14:31 10° N
Cosmos 2333 4.3 22:06:21 10° NNW 22:12:07 68° ENE 22:12:07 68° ENE
Cosmos 2360 Rocket 2.3 22:07:53 10° NNW 22:13:31 64° WSW 22:13:33 64° WSW
USA 234 3.3 22:16:20 59° E 22:17:34 74° NE 22:24:05 10° NW
Iridium 4 Rocket 4.2 22:18:30 39° WNW 22:18:30 39° WNW 22:21:47 10° NNW
Cosmos 1864 Rocket 4.4 22:17:15 72° SW 22:17:54 82° W 22:24:12 10° N
ATLAS 3B R/B 3.2 22:14:08 10° SW 22:20:34 54° NW 22:27:05 10° NNE
Lacrosse 5 3.9 22:18:26 10° WNW 22:21:01 17° WSW 22:21:01 17° WSW
MOS 1-B Rocket 4.1 22:18:26 10° NNE 22:23:10 58° ENE 22:23:10 58° ENE
Cosmos 2297 Rocket 4.4 22:32:12 12° ENE 22:32:12 12° ENE 22:32:55 10° ENE
Cosmos 2233 Rocket 3.9 22:34:08 84° ENE 22:34:08 84° ENE 22:40:22 10° N
COSMOS 2428 3.0 22:34:41 10° NNW 22:39:48 64° NNE 22:39:48 64° NNE
Cosmos 44 Rocket 4.1 22:39:11 10° NNW 22:42:56 50° NNW 22:42:56 50° NNW
Cosmos 2237 Rocket 3.4 22:39:39 10° N 22:44:34 31° NE 22:44:34 31° NE
NOSS 0 Rocket 4.3 22:45:54 10° NNW 22:51:50 54° NE 22:51:50 54° NE
Cosmos 2333 Rocket 2.7 22:52:36 10° NNW 22:57:19 57° NW 22:57:19 57° NW
Lacrosse 4 Rocket 3.9 23:13:51 17° NW 23:14:19 17° NW 23:17:09 10° N
ALOS 2 4.4 23:17:00 29° N 23:17:00 29° N 23:19:13 10° N
Cosmos 2227 Rocket 3.7 23:22:00 26° ENE 23:22:00 26° ENE 23:24:45 10° NE
Cosmos 2219 Rocket 3.4 23:22:19 10° NW 23:26:05 36° WNW 23:26:05 36° WNW
